Weather History for Ukiah, CA

Change the Weather History Date:

Monday, November 15, 2010

  Actual Average Record
Temperature  
Mean Temperature 62 °F 51 °F  
Max Temperature 79 °F 63 °F 81 °F (1949)
Min Temperature 44 °F 39 °F 23 °F (1916)
Degree Days  
Heating Degree Days 3 14  
Month to date heating degree days 134 178  
Since 1 July heating degree days 325 378  
Cooling Degree Days 0 0  
Month to date cooling degree days 0 0  
Year to date cooling degree days 783 835  
Growing Degree Days 12 (Base 50)    
Moisture  
Dew Point 50 °F    
Average Humidity 70    
Maximum Humidity 100    
Minimum Humidity 39    
Precipitation  
Precipitation 0.00 in 0.13 in 1.70 in (1981)
Month to date precipitation 1.23 1.83  
Year to date precipitation 40.66 27.96  
Since 1 July precipitation 8.18 4.58  
Snow  
Snow 0.00 in - - ()
Month to date snowfall 0.0  
Since 1 July snowfall 0.0  
Since 1 September snowfall 0.0  
Snow Depth 0.00 in    
Sea Level Pressure  
Sea Level Pressure 30.13 in    
Wind  
Wind Speed 2 mph (WNW)    
Max Wind Speed 7 mph    
Max Gust Speed -    
Visibility 10 miles    
Events      
T = Trace of Precipitation, MM = Missing Value Source: NWS Daily Summary

Daily Weather History Graph

Daily Weather History Graph

Search for Another Location

Airport:

Trip Planner

Search our weather history database for the weather conditions in past years. The results will help you decide how hot, cold, wet, or windy it might be!

Date:

Astronomy

Nov. 15, 2010 Rise Set
Actual Time 6:56 AM PST 4:58 PM PST
Civil Twilight 6:27 AM PST 5:26 PM PST
Nautical Twilight 5:55 AM PST 5:59 PM PST
Astronomical Twilight 5:23 AM PST 6:30 PM PST
Moon 1:41 PM PST (11/15) 1:09 AM PST (11/15)
Length of Visible Light 10h 59m
Length of Day
10h 02m
Waxing Gibbous, 70% of the Moon is Illuminated
Nov 15
Waxing Gibbous
Nov 21
Full
Nov 28
Last Quarter
Dec 5
New
Dec 13
First Quarter

Hourly Weather History & Observations

Time (PST) Temp. Dew Point Humidity Pressure Visibility Wind Dir Wind Speed Gust Speed Precip Events Conditions
12:56 AM 48.0 °F 46.9 °F 96% 30.17 in 10.0 mi Calm Calm - N/A   Clear
1:56 AM 46.9 °F 46.0 °F 97% 30.17 in 10.0 mi SE 3.5 mph - N/A   Clear
2:56 AM 48.9 °F 48.0 °F 97% 30.17 in 10.0 mi Calm Calm - N/A   Clear
3:56 AM 46.0 °F 44.1 °F 93% 30.16 in 10.0 mi Calm Calm - N/A   Clear
4:56 AM 45.0 °F 45.0 °F 100% 30.17 in 10.0 mi Calm Calm - N/A   Clear
5:56 AM 46.0 °F 46.0 °F 100% 30.17 in 10.0 mi Calm Calm - N/A   Clear
6:56 AM 46.9 °F 46.0 °F 97% 30.18 in 10.0 mi Calm Calm - N/A   Clear
7:56 AM 50.0 °F 48.0 °F 93% 30.19 in 10.0 mi Calm Calm - N/A   Clear
8:56 AM 54.0 °F 51.1 °F 90% 30.19 in 10.0 mi Calm Calm - N/A   Clear
9:56 AM 61.0 °F 52.0 °F 72% 30.18 in 10.0 mi Calm Calm - N/A   Clear
10:56 AM 66.0 °F 51.1 °F 59% 30.17 in 10.0 mi Calm Calm - N/A   Clear
11:56 AM 70.0 °F 52.0 °F 53% 30.13 in 10.0 mi Calm Calm - N/A   Clear
1:56 PM 78.1 °F 52.0 °F 40% 30.08 in 10.0 mi North 4.6 mph - N/A   Clear
2:56 PM 78.1 °F 52.0 °F 40% 30.07 in 10.0 mi NW 6.9 mph - N/A   Clear
3:56 PM 73.0 °F 53.1 °F 49% 30.06 in 10.0 mi WNW 5.8 mph - N/A   Clear
4:56 PM 66.9 °F 54.0 °F 63% 30.07 in 10.0 mi East 3.5 mph - N/A   Clear
5:56 PM 63.0 °F 54.0 °F 72% 30.08 in 10.0 mi WSW 3.5 mph - N/A   Clear
6:56 PM 59.0 °F 53.1 °F 81% 30.09 in 10.0 mi SW 3.5 mph - N/A   Clear
7:56 PM 57.0 °F 52.0 °F 83% 30.09 in 10.0 mi Calm Calm - N/A   Clear
8:56 PM 55.9 °F 52.0 °F 87% 30.10 in 10.0 mi West 3.5 mph - N/A   Clear
9:56 PM 54.0 °F 51.1 °F 90% 30.11 in 10.0 mi NW 4.6 mph - N/A   Clear
10:56 PM 53.1 °F 50.0 °F 89% 30.11 in 10.0 mi Calm Calm - N/A   Clear
11:56 PM 48.0 °F 46.0 °F 93% 30.11 in 10.0 mi Calm Calm - N/A   Clear